Content
SEND FEEDBACK

Daily
Averages
Monthly
Summary
United States of America

MALDEN, MISSOURI


Home > North America > United States > Missouri
Elevation: 89 meters     Latitude: 36 36N     Longitude: 089 59W

WEATHER
 
SELECT A DAY
Number of Records: 207,697;   Date Range: 1/1/95 - 7/26/14
 
SHARE

PRINT THIS DATA

[ ← Previous Day ]
WEATHER ALMANAC - 3 JANUARY, 2014
[ Next Day → ]
[ °F ]   °C
Weather ElementAverageHighLow
Temperature-5 °C-1.1 °C (2:53 pm)-9.4 °C (4:53 am)
Dewpoint-11.4 °C-8.9 °C (8:53 pm)-14.4 °C (4:53 am)
Humidity62 %71 % (7:53 am)49 % (1:53 pm)
Barometer1030.1 hPa1035.2 hPa (7:53 am)1022.7 hPa (11:53 pm)
Wind Speed11.6 km/h20.4 km/h (12:53 pm)
Weather ElementAverage
Visibility16.1 km
Wind DirectionSSE (161.7 °)

Weather ElementTotal
Precipitation---
Heating Degree Days23.6 (Base 18.3)
Averaged from 23 records on 3 January, 2014
WEATHER CONDITIONS BREAKOUT
WIND DIRECTION BREAKOUT
WEATHER BY HOUR - 3 JANUARY, 2014
[ °F ]   °C
Local TimeTemperatureDewpointHumidityBarometerVisibilityWind DirectionWind SpeedGust SpeedPrecipitationEventsConditions
1:53 AM-7.8 °C-13.3 °C65 %1033.9 hPa16.1 kmNorth (10°)13 km/hClear
2:53 AM-8.3 °C-13.3 °C68 %1033.9 hPa16.1 kmNorth (350°)7.4 km/hClear
3:53 AM-8.9 °C-13.9 °C68 %1033.9 hPa16.1 kmNNW (340°)5.6 km/hClear
4:53 AM-9.4 °C-14.4 °C68 %1034.2 hPa16.1 kmNNW (330°)5.6 km/hClear
5:53 AM-9.4 °C-13.9 °C70 %1034.5 hPa16.1 kmNorth (10°)5.6 km/hClear
6:53 AM-9.4 °C-13.9 °C70 %1034.5 hPa16.1 kmCalmClear
7:53 AM-8.9 °C-13.3 °C71 %1035.2 hPa16.1 kmCalmClear
8:53 AM-7.2 °C-12.8 °C65 %1035.2 hPa16.1 kmEast (100°)11.1 km/hClear
9:53 AM-6.7 °C-11.7 °C68 %1034.9 hPa16.1 kmSE (130°)11.1 km/hClear
10:53 AM-4.4 °C-11.1 °C60 %1033.5 hPa16.1 kmSouth (180°)18.5 km/hClear
11:53 AM-3.3 °C-11.7 °C53 %1032.2 hPa16.1 kmSouth (180°)18.5 km/hClear
12:53 PM-2.8 °C-11.1 °C53 %1030.8 hPa16.1 kmSouth (190°)20.4 km/hClear
1:53 PM-2.2 °C-11.7 °C49 %1029.5 hPa16.1 kmSouth (170°)16.7 km/hClear
2:53 PM-1.1 °C-10 °C51 %1028.8 hPa16.1 kmSouth (170°)14.8 km/hClear
3:53 PM-1.1 °C-10.6 °C49 %1028.1 hPa16.1 kmSouth (170°)18.5 km/hClear
4:53 PM-1.7 °C-10 °C54 %1027.4 hPa16.1 kmSouth (180°)13 km/hClear
5:53 PM-2.2 °C-9.4 °C58 %1026.8 hPa16.1 kmSouth (180°)13 km/hClear
6:53 PM-2.8 °C-9.4 °C61 %1026.1 hPa16.1 kmSouth (170°)13 km/hClear
7:53 PM-3.3 °C-9.4 °C63 %1025.4 hPa16.1 kmSouth (170°)11.1 km/hClear
8:53 PM-3.3 °C-8.9 °C66 %1024.4 hPa16.1 kmSSE (160°)13 km/hClear
9:53 PM-3.3 °C-8.9 °C66 %1023.4 hPa16.1 kmSouth (170°)14.8 km/hClear
10:53 PM-3.3 °C-9.4 °C63 %1023.4 hPa16.1 kmSouth (180°)9.3 km/hClear
11:53 PM-3.9 °C-9.4 °C66 %1022.7 hPa16.1 kmSouth (180°)11.1 km/hClear
Hourly data recorded from KPOF, located 0 kilometers away from Malden, Missouri







STORIES FROM OUR PARTNERS